            UTC date,        Decimal date,     TCCON,      CAMS,       CSU,        OU, TM5-4DVAR,      Ames,        CT,        UT,      LoFI,     Baker,  CMS-Flux
 2014-07-03 17:34:11,   2014.503375539066,  398.4500,       nan,       nan,  400.7809,       nan,       nan,       nan,       nan,  398.2780,  399.2300,       nan
 2014-07-03 17:37:33,   2014.503381944445,  398.8000,       nan,       nan,  400.7809,       nan,       nan,       nan,       nan,  398.2780,  399.2300,       nan
 2014-07-04 13:58:59,   2014.505705828260,  398.9286,       nan,       nan,  401.1171,       nan,       nan,       nan,       nan,  398.5038,  398.9500,       nan
 2014-07-04 14:20:45,   2014.505747241248,  398.8267,       nan,       nan,  401.1038,       nan,       nan,       nan,       nan,  398.4894,  398.9500,       nan
 2014-07-04 14:50:35,   2014.505804001776,  398.7733,       nan,       nan,  401.0859,       nan,       nan,       nan,       nan,  398.4699,  398.9500,       nan
 2014-07-04 15:19:08,   2014.505858320649,  398.6500,       nan,       nan,  401.0612,       nan,       nan,       nan,       nan,  398.5865,  398.9600,       nan
 2014-07-09 13:23:18,   2014.519336567732,  398.5250,       nan,       nan,  400.8260,       nan,       nan,       nan,       nan,  398.6530,  398.4900,       nan
 2014-07-09 13:51:06,   2014.519389459665,  398.4125,       nan,       nan,  400.8282,       nan,       nan,       nan,       nan,  398.6489,  398.4900,       nan
 2014-07-09 14:20:54,   2014.519446156773,  398.3357,       nan,       nan,  400.8133,       nan,       nan,       nan,       nan,  398.6358,  398.4900,       nan
 2014-07-09 14:50:41,   2014.519502822171,  398.3875,       nan,       nan,  400.7932,       nan,       nan,       nan,       nan,  398.6180,  398.5000,       nan
 2014-07-09 15:20:33,   2014.519559646119,  398.3786,       nan,       nan,  400.7705,       nan,       nan,       nan,       nan,  398.6365,  398.5100,       nan
 2014-07-10 10:50:40,   2014.521785895485,  398.8375,       nan,       nan,  400.7355,       nan,       nan,       nan,       nan,  398.8410,  398.5300,       nan
 2014-07-10 11:21:30,   2014.521844558600,  398.7133,       nan,       nan,  400.7733,       nan,       nan,       nan,       nan,  398.8773,  398.5200,       nan
 2014-07-10 11:51:15,   2014.521901160578,  398.8533,       nan,       nan,  400.8264,       nan,       nan,       nan,       nan,  398.9282,  398.5100,       nan
 2014-07-10 12:21:22,   2014.521958460173,  398.8500,       nan,       nan,  400.8497,       nan,       nan,       nan,       nan,  398.8909,  398.5000,       nan
 2014-07-10 12:50:43,   2014.522014301116,  398.5733,       nan,       nan,  400.8550,       nan,       nan,       nan,       nan,  398.8960,  398.4900,       nan
 2014-07-10 13:20:27,   2014.522070871385,  398.8000,       nan,       nan,  400.8550,       nan,       nan,       nan,       nan,  398.8960,  398.4900,       nan
 2014-07-10 13:45:19,   2014.522118182395,  398.9500,       nan,       nan,  400.8622,       nan,       nan,       nan,       nan,  398.8960,  398.4900,       nan
 2014-07-11 12:03:09,   2014.524663527397,  398.4333,       nan,       nan,  400.8007,       nan,       nan,       nan,       nan,  398.6792,  398.4500,       nan
 2014-07-11 12:20:53,   2014.524697266616,  398.3667,       nan,       nan,  400.8163,       nan,       nan,       nan,       nan,  398.6941,  398.4400,       nan
 2014-07-11 12:50:11,   2014.524753012430,  398.2286,       nan,       nan,  400.8212,       nan,       nan,       nan,       nan,  398.6988,  398.4300,       nan
 2014-07-11 13:20:46,   2014.524811199899,  398.2357,       nan,       nan,  400.8212,       nan,       nan,       nan,       nan,  398.6988,  398.4300,       nan
 2014-07-11 13:48:36,   2014.524864155251,  398.4000,       nan,       nan,  400.8047,       nan,       nan,       nan,       nan,  398.6941,  398.4300,       nan
 2014-07-14 09:04:21,   2014.532542522831,  397.8500,       nan,       nan,  399.8199,       nan,       nan,       nan,       nan,  398.3604,  398.5500,       nan
 2014-07-14 09:21:16,   2014.532574708270,  397.7200,       nan,       nan,  399.9187,       nan,       nan,       nan,       nan,  398.4523,  398.5200,       nan
 2014-07-14 09:39:01,   2014.532608479198,  397.7667,       nan,       nan,  399.9848,       nan,       nan,       nan,       nan,  398.5137,  398.5000,       nan
 2014-07-15 12:50:44,   2014.535712962963,  397.8534,       nan,       nan,  400.2935,       nan,       nan,       nan,       nan,  398.3042,  398.2600,       nan
 2014-07-15 13:20:54,   2014.535770357686,  398.0571,       nan,       nan,  400.2935,       nan,       nan,       nan,       nan,  398.3042,  398.2600,       nan
 2014-07-15 13:50:42,   2014.535827054794,  397.8062,       nan,       nan,  400.2918,       nan,       nan,       nan,       nan,  398.2994,  398.2600,       nan
 2014-07-15 14:22:05,   2014.535886764333,  397.9077,       nan,       nan,  400.2772,       nan,       nan,       nan,       nan,  398.2842,  398.2700,       nan
 2014-07-15 14:36:43,   2014.535914605530,  397.8000,       nan,       nan,  400.2574,       nan,       nan,       nan,       nan,  398.2634,  398.2700,       nan
 2014-07-22 14:54:08,   2014.555125824455,  397.5417,       nan,       nan,  400.1804,       nan,       nan,       nan,       nan,  397.9753,  398.1600,       nan
 2014-07-22 15:20:58,   2014.555176877220,  397.6200,       nan,       nan,  400.1174,       nan,       nan,       nan,       nan,  397.8650,  398.1800,       nan
 2014-07-22 15:50:41,   2014.555233415779,  397.6066,       nan,       nan,  400.0715,       nan,       nan,       nan,       nan,  397.8192,  398.2000,       nan
 2014-07-22 16:11:34,   2014.555273148148,  397.5167,       nan,       nan,  400.0127,       nan,       nan,       nan,       nan,  397.7604,  398.2200,       nan
 2014-07-24 14:30:58,   2014.560561199899,  397.7500,       nan,       nan,  399.6332,       nan,       nan,       nan,       nan,  398.1037,  398.3800,       nan
 2014-07-24 14:50:50,   2014.560598997971,  397.6000,       nan,       nan,  399.6109,       nan,       nan,       nan,       nan,  398.0836,  398.3800,       nan
 2014-07-24 15:20:46,   2014.560655948757,  397.6063,       nan,       nan,  399.4948,       nan,       nan,       nan,       nan,  397.8967,  398.4000,       nan
 2014-07-24 15:46:52,   2014.560705606291,  397.4300,       nan,       nan,  399.4480,       nan,       nan,       nan,       nan,  397.8542,  398.4200,       nan
 2014-07-25 08:57:25,   2014.562666317859,  396.9750,       nan,       nan,  398.8075,       nan,       nan,       nan,       nan,  397.6259,  398.3000,       nan
 2014-07-25 09:20:13,   2014.562709696854,  397.2533,       nan,       nan,  398.9192,       nan,       nan,       nan,       nan,  397.7977,  398.2900,       nan
 2014-07-25 09:51:04,   2014.562768391679,  397.1375,       nan,       nan,  399.0010,       nan,       nan,       nan,       nan,  397.8688,  398.2700,       nan
 2014-07-25 10:25:28,   2014.562833840690,  397.4000,       nan,       nan,  399.1287,       nan,       nan,       nan,       nan,  397.9790,  398.2400,       nan
 2014-07-25 10:51:15,   2014.562882895738,  397.2000,       nan,       nan,  399.1791,       nan,       nan,       nan,       nan,  398.0214,  398.2300,       nan
 2014-07-25 11:21:06,   2014.562939687976,  397.3534,       nan,       nan,  399.2184,       nan,       nan,       nan,       nan,  398.0551,  398.2200,       nan
 2014-07-25 11:44:52,   2014.562984906139,  397.5000,       nan,       nan,  399.2502,       nan,       nan,       nan,       nan,  398.0822,  398.2100,       nan
 2014-07-25 12:51:47,   2014.563112220954,  397.4786,       nan,       nan,  399.3021,       nan,       nan,       nan,       nan,  398.2505,  398.1900,       nan
 2014-07-25 13:20:38,   2014.563167110604,  397.3667,       nan,       nan,  399.3076,       nan,       nan,       nan,       nan,  398.2551,  398.1900,       nan
 2014-07-25 13:36:07,   2014.563196569000,  397.3000,       nan,       nan,  399.3211,       nan,       nan,       nan,       nan,  398.2505,  398.1900,       nan
 2014-07-28 08:58:52,   2014.570888254693,  396.6625,       nan,       nan,  399.2529,       nan,       nan,       nan,       nan,  397.4767,  397.9900,       nan
 2014-07-28 09:10:47,   2014.570910927194,  396.9000,       nan,       nan,  399.2567,       nan,       nan,       nan,       nan,  397.4593,  397.9900,       nan
 2014-07-30 12:58:02,   2014.576822742263,  396.5875,       nan,       nan,  399.7394,       nan,       nan,       nan,       nan,  398.3982,  397.8500,       nan
 2014-07-30 13:20:56,   2014.576866311517,  396.6200,       nan,       nan,  399.7395,       nan,       nan,       nan,       nan,  398.3982,  397.8400,       nan
 2014-07-30 13:50:43,   2014.576922976915,  396.5467,       nan,       nan,  399.7405,       nan,       nan,       nan,       nan,  398.3982,  397.8400,       nan
 2014-07-30 14:17:36,   2014.576974124810,  396.6083,       nan,       nan,  399.7230,       nan,       nan,       nan,       nan,  398.3845,  397.8300,       nan
 2014-07-31 09:34:47,   2014.579175767377,  397.0000,       nan,       nan,  399.4445,       nan,       nan,       nan,       nan,  397.8798,  397.8500,       nan
 2014-07-31 09:46:18,   2014.579197678843,  397.2727,       nan,       nan,  399.5331,       nan,       nan,       nan,       nan,  397.9625,  397.8600,       nan
 2014-08-01 09:04:37,   2014.581858098681,  397.0000,       nan,       nan,  399.3938,       nan,       nan,       nan,       nan,  397.7897,  397.8900,       nan
 2014-08-01 09:21:32,   2014.581890284120,  397.0733,       nan,       nan,  399.5232,       nan,       nan,       nan,       nan,  397.9055,  397.9000,       nan
 2014-08-01 09:39:15,   2014.581923991629,  397.4000,       nan,       nan,  399.6118,       nan,       nan,       nan,       nan,  397.9843,  397.9000,       nan
 2014-08-05 08:59:22,   2014.592807014206,  396.7500,       nan,       nan,  399.1397,       nan,       nan,       nan,       nan,  397.4486,  397.7300,       nan
 2014-08-05 09:19:19,   2014.592844970827,  396.6500,       nan,       nan,  399.2792,       nan,       nan,       nan,       nan,  397.5863,  397.7300,       nan
 2014-08-05 09:51:01,   2014.592905282851,  396.7625,       nan,       nan,  399.3661,       nan,       nan,       nan,       nan,  397.6593,  397.7300,       nan
 2014-08-05 10:21:40,   2014.592963597159,  396.5572,       nan,       nan,  399.4346,       nan,       nan,       nan,       nan,  397.7168,  397.7300,       nan
 2014-08-05 10:45:31,   2014.593008973871,  396.7800,       nan,       nan,  399.5179,       nan,       nan,       nan,       nan,  397.7730,  397.7300,       nan
 2014-08-05 11:20:18,   2014.593075152207,  396.6266,       nan,       nan,  399.6131,       nan,       nan,       nan,       nan,  397.8519,  397.7300,       nan
 2014-08-05 11:51:10,   2014.593133878742,  396.4938,       nan,       nan,  399.6472,       nan,       nan,       nan,       nan,  397.8801,  397.7300,       nan
 2014-08-05 12:21:00,   2014.593190639269,  396.3857,       nan,       nan,  399.6904,       nan,       nan,       nan,       nan,  397.8134,  397.7200,       nan
 2014-08-05 12:50:31,   2014.593246797311,  396.2800,       nan,       nan,  399.7091,       nan,       nan,       nan,       nan,  397.8303,  397.7200,       nan
 2014-08-05 13:20:30,   2014.593303843227,  396.0200,       nan,       nan,  399.7091,       nan,       nan,       nan,       nan,  397.8302,  397.7200,       nan
 2014-08-05 13:51:22,   2014.593362569761,  396.0563,       nan,       nan,  399.7262,       nan,       nan,       nan,       nan,  397.8303,  397.7100,       nan
 2014-08-05 14:15:52,   2014.593409183156,  396.0667,       nan,       nan,  399.7074,       nan,       nan,       nan,       nan,  397.8134,  397.7100,       nan
 2014-08-07 13:58:40,   2014.598855910705,  396.7334,       nan,       nan,  399.7670,       nan,       nan,       nan,       nan,  397.5292,  397.8400,       nan
 2014-08-07 14:20:33,   2014.598897545662,  396.5375,       nan,       nan,  399.7670,       nan,       nan,       nan,       nan,  397.5292,  397.8400,       nan
 2014-08-07 14:51:24,   2014.598956240487,  396.6867,       nan,       nan,  399.7070,       nan,       nan,       nan,       nan,  397.4707,  397.8500,       nan
 2014-08-07 15:19:10,   2014.599009069000,  396.4461,       nan,       nan,  399.6588,       nan,       nan,       nan,       nan,  397.4492,  397.8600,       nan
 2014-08-11 09:51:15,   2014.609344082953,  395.9813,       nan,       nan,  399.1454,       nan,       nan,       nan,       nan,  396.6522,  397.6300,       nan
 2014-08-11 10:21:05,   2014.609400843480,  395.9071,       nan,       nan,  399.2132,       nan,       nan,       nan,       nan,  396.7104,  397.6300,       nan
 2014-08-11 10:51:30,   2014.609458713851,  395.9734,       nan,       nan,  399.3360,       nan,       nan,       nan,       nan,  396.8141,  397.6200,       nan
 2014-08-11 11:21:22,   2014.609515537798,  395.6667,       nan,       nan,  399.3779,       nan,       nan,       nan,       nan,  396.8508,  397.6100,       nan
 2014-08-11 11:50:32,   2014.609571029934,  395.9750,       nan,       nan,  399.4120,       nan,       nan,       nan,       nan,  396.8807,  397.6100,       nan
 2014-08-11 12:21:20,   2014.609629629630,  395.8933,       nan,       nan,  399.4432,       nan,       nan,       nan,       nan,  396.8205,  397.5900,       nan
 2014-08-11 12:50:25,   2014.609684963217,  396.0785,       nan,       nan,  399.4618,       nan,       nan,       nan,       nan,  396.8371,  397.5900,       nan
 2014-08-11 13:20:12,   2014.609741628615,  395.7866,       nan,       nan,  399.4618,       nan,       nan,       nan,       nan,  396.8371,  397.5900,       nan
 2014-08-11 13:51:01,   2014.609800260020,  395.8125,       nan,       nan,  399.4503,       nan,       nan,       nan,       nan,  396.8205,  397.5900,       nan
 2014-08-11 14:20:49,   2014.609856957128,  396.0071,       nan,       nan,  399.4250,       nan,       nan,       nan,       nan,  396.7979,  397.5900,       nan
 2014-08-11 14:50:55,   2014.609914225013,  395.9750,       nan,       nan,  399.3911,       nan,       nan,       nan,       nan,  396.7677,  397.6000,       nan
 2014-08-11 15:20:47,   2014.609971048960,  396.0071,       nan,       nan,  399.3576,       nan,       nan,       nan,       nan,  396.7577,  397.6000,       nan
 2014-08-11 15:50:35,   2014.610027746068,  396.1312,       nan,       nan,  399.3052,       nan,       nan,       nan,       nan,  396.7119,  397.6100,       nan
 2014-08-11 16:12:27,   2014.610069349315,  396.0000,       nan,       nan,  399.2383,       nan,       nan,       nan,       nan,  396.6541,  397.6200,       nan
 2014-08-13 09:50:39,   2014.614822393455,  396.3333,       nan,       nan,  399.2247,       nan,       nan,       nan,       nan,  397.1189,  397.5900,       nan
 2014-08-13 10:20:24,   2014.614878995434,  396.3467,       nan,       nan,  399.2912,       nan,       nan,       nan,       nan,  397.1766,  397.6000,       nan
 2014-08-13 10:51:15,   2014.614937690259,  396.4625,       nan,       nan,  399.3599,       nan,       nan,       nan,       nan,  397.2335,  397.6000,       nan
 2014-08-13 11:21:18,   2014.614994863014,  396.2643,       nan,       nan,  399.4520,       nan,       nan,       nan,       nan,  397.3139,  397.6100,       nan
 2014-08-13 11:51:13,   2014.615051782090,  396.3250,       nan,       nan,  399.4851,       nan,       nan,       nan,       nan,  397.3428,  397.6100,       nan
 2014-08-13 12:21:02,   2014.615108510908,  396.3929,       nan,       nan,  399.5121,       nan,       nan,       nan,       nan,  397.2940,  397.6100,       nan
 2014-08-13 12:51:00,   2014.615165525114,  396.2750,       nan,       nan,  399.5302,       nan,       nan,       nan,       nan,  397.3099,  397.6100,       nan
 2014-08-13 13:21:02,   2014.615222666159,  396.2214,       nan,       nan,  399.5302,       nan,       nan,       nan,       nan,  397.3099,  397.6100,       nan
 2014-08-13 13:51:17,   2014.615280219432,  396.2333,       nan,       nan,  399.5138,       nan,       nan,       nan,       nan,  397.2940,  397.6200,       nan
 2014-08-13 14:20:39,   2014.615336092085,  396.2714,       nan,       nan,  399.4892,       nan,       nan,       nan,       nan,  397.2722,  397.6300,       nan
 2014-08-13 14:50:49,   2014.615393486809,  396.2188,       nan,       nan,  399.4562,       nan,       nan,       nan,       nan,  397.2431,  397.6400,       nan
 2014-08-13 15:20:37,   2014.615450183917,  396.3214,       nan,       nan,  399.4173,       nan,       nan,       nan,       nan,  397.1597,  397.6600,       nan
 2014-08-13 15:50:27,   2014.615506944444,  396.3625,       nan,       nan,  399.3662,       nan,       nan,       nan,       nan,  397.1148,  397.6700,       nan
 2014-08-13 16:10:19,   2014.615544742516,  396.2750,       nan,       nan,  399.3012,       nan,       nan,       nan,       nan,  397.0578,  397.6800,       nan
 2014-08-19 14:00:53,   2014.631736840436,  395.8200,       nan,       nan,  399.2705,       nan,       nan,       nan,       nan,  397.2455,  397.1500,       nan
 2014-08-19 14:16:41,   2014.631766901319,  395.9637,       nan,       nan,  399.2409,       nan,       nan,       nan,       nan,  397.2172,  397.1500,       nan
 2014-08-19 14:50:31,   2014.631831272197,  395.7933,       nan,       nan,  399.2014,       nan,       nan,       nan,       nan,  397.1792,  397.1400,       nan
 2014-08-19 15:20:16,   2014.631887874176,  395.7733,       nan,       nan,  399.1666,       nan,       nan,       nan,       nan,  397.0434,  397.1300,       nan
 2014-08-22 13:01:49,   2014.639843639016,  395.1000,       nan,       nan,  399.6296,       nan,       nan,       nan,       nan,  397.7155,  397.6400,       nan
 2014-08-22 13:20:43,   2014.639879597920,  395.2933,       nan,       nan,  399.6296,       nan,       nan,       nan,       nan,  397.7155,  397.6400,       nan
 2014-08-22 13:50:27,   2014.639936168189,  395.4133,       nan,       nan,  399.6280,       nan,       nan,       nan,       nan,  397.7155,  397.6400,       nan
 2014-08-22 14:21:22,   2014.639994989853,  395.1533,       nan,       nan,  399.5958,       nan,       nan,       nan,       nan,  397.6854,  397.6400,       nan
 2014-08-22 14:51:38,   2014.640052574835,  395.1214,       nan,       nan,  399.5528,       nan,       nan,       nan,       nan,  397.6451,  397.6400,       nan
 2014-08-22 15:20:29,   2014.640107464485,  395.1666,       nan,       nan,  399.4974,       nan,       nan,       nan,       nan,  397.5922,  397.6400,       nan
 2014-08-22 15:36:00,   2014.640136986301,  395.4000,       nan,       nan,  399.4312,       nan,       nan,       nan,       nan,  397.5313,  397.6400,       nan
 2015-12-17 12:53:20,   2015.960375443937,  400.7069,  400.9007,  400.2747,  404.1455,  400.2071,  400.7138,  400.7201,  401.6748,  399.1441,  399.7000,  400.1140
 2015-12-17 13:11:00,   2015.960409056317,  400.9160,  400.9007,  400.2718,  404.1455,  400.2060,  400.7075,  400.7201,  401.6656,  399.1441,  399.7000,  400.1021
 2015-12-18 14:33:35,   2015.963305904363,  400.6250,  401.0052,  400.1842,  404.0268,  400.2101,  400.6779,  400.8337,  401.7827,  399.1908,  399.6200,  400.0488
 2015-12-18 14:51:20,   2015.963339675292,  400.7787,  401.0062,  400.1842,  404.0268,  400.2101,  400.6779,  400.8337,  401.7827,  399.1908,  399.6200,  400.0488
 2015-12-18 15:08:31,   2015.963372368087,  400.6500,  401.0062,  400.1826,  404.0239,  400.2126,  400.6756,  400.8430,  401.7801,  399.2024,  399.6200,  400.0481
 2015-12-29 13:23:09,   2015.993308885084,  402.2117,  402.5278,  401.2238,  405.9250,  402.3867,  401.7954,  402.9174,  402.5955,  400.5779,  400.8300,  400.8257
 2015-12-29 13:49:39,   2015.993359303653,  402.2200,  402.5286,  401.2199,  405.9302,  402.3913,  401.7954,  402.9195,  402.5955,  400.5779,  400.8400,  400.8257
 2015-12-29 14:15:09,   2015.993407819635,  402.2100,  402.5297,  401.2160,  405.9302,  402.3942,  401.7927,  402.9183,  402.5916,  400.5779,  400.8400,  400.8164
 2015-12-30 14:24:54,   2015.996166095890,  402.6250,  402.5932,  401.1462,  405.8131,  402.2129,  401.7760,  402.7665,  402.5229,  400.3655,  400.8800,  400.6561
 2015-12-30 14:50:39,   2015.996215087519,  402.4964,  402.5969,  401.1340,  405.8105,  402.2346,  401.7962,  402.7665,  402.6678,  400.3838,  400.8900,  400.6981
 2015-12-30 15:06:46,   2015.996245750888,  402.5300,  402.5969,  401.1287,  405.7890,  402.2242,  401.7866,  402.7512,  402.6615,  400.3851,  400.8900,  400.6837
 2016-01-07 14:22:47,   2016.018030478395,  401.8108,  402.5537,  401.6227,  405.1394,  401.0360,  402.2415,  402.0567,  402.8707,  400.0912,  400.9500,  400.3321
 2016-01-07 14:50:26,   2016.018082941206,  401.7769,  402.5558,  401.6354,  405.1241,  401.0526,  402.2678,  402.0567,  403.0225,  400.0954,  400.9800,  400.3696
 2016-01-07 15:08:13,   2016.018116683111,  401.6300,  402.5558,  401.6404,  405.1087,  401.0564,  402.2759,  402.0597,  403.0225,  400.1000,  400.9600,  400.3784
 2016-01-12 14:51:19,   2016.031745819419,  401.5164,  402.0142,  400.6430,  404.8983,  401.0235,  401.7726,  401.8242,  402.3567,  400.4577,  400.3200,  400.1000
 2016-01-12 15:18:57,   2016.031798250607,  401.4565,  402.0088,  400.6385,  404.8893,  401.0183,  401.7680,  401.8094,  402.3481,  400.3823,  400.3000,  400.0931
 2016-01-13 11:21:21,   2016.034079671372,  401.7757,  402.0906,  400.6618,  405.0747,  401.3511,  401.9424,  401.9298,  402.3817,  400.1581,  400.2600,  400.4163
 2016-01-13 11:50:55,   2016.034135770846,  401.8669,  402.1063,  400.6930,  405.1092,  401.3571,  401.9293,  401.9298,  402.2341,  400.1502,  400.2700,  400.3734
 2016-01-13 12:21:32,   2016.034193862578,  401.9307,  402.1101,  400.6974,  405.1331,  401.3637,  401.9564,  401.9411,  402.2558,  400.0901,  400.2800,  400.4136
 2016-01-13 12:39:08,   2016.034227256628,  401.7700,  402.1101,  400.7020,  405.1331,  401.3692,  401.9564,  401.9411,  402.2558,  400.0901,  400.2900,  400.4136
 2016-01-14 11:00:44,   2016.036772793969,  401.6450,  402.3918,  401.1322,  405.3044,  401.4638,  402.8164,  402.0427,  403.1132,  400.7641,  400.9900,  401.4453
 2016-01-14 11:12:32,   2016.036795183161,  402.4860,  402.3918,  401.1322,  405.3044,  401.4638,  402.8164,  402.0427,  403.1132,  400.7641,  400.9800,  401.4453
 2016-01-14 11:59:43,   2016.036884708308,  402.3600,  402.4022,  401.1584,  405.3456,  401.4604,  402.7969,  402.0289,  402.9657,  400.7742,  400.9600,  401.3938
 2016-01-14 12:15:30,   2016.036914655434,  403.1650,  402.4014,  401.1585,  405.3292,  401.4462,  402.8015,  402.0166,  402.9701,  400.6296,  400.9600,  401.4010
 2016-01-14 12:41:09,   2016.036963323467,  402.0300,  402.4014,  401.1581,  405.3292,  401.4337,  402.8015,  402.0166,  402.9701,  400.6296,  400.9500,  401.4010
 2016-01-19 12:56:36,   2016.050653840316,  402.2230,  402.9212,  401.9873,  406.1623,  402.0897,  403.8105,  402.8263,  403.3554,  401.5669,  402.0100,  402.0489
 2016-01-19 13:23:10,   2016.050704247622,  402.1850,  402.9209,  402.0010,  406.1623,  402.0962,  403.8567,  402.8263,  403.3813,  401.5669,  402.0200,  402.0829
 2016-01-19 13:50:40,   2016.050756425825,  402.2367,  402.9203,  402.0149,  406.1884,  402.1045,  403.8567,  402.8333,  403.3813,  401.5669,  402.0300,  402.0829
 2016-01-19 14:15:33,   2016.050803639193,  402.1220,  402.9376,  402.0321,  406.1897,  402.1369,  403.9361,  402.8392,  403.5257,  401.5930,  402.0700,  402.1712
 2016-01-19 14:50:06,   2016.050869193989,  402.5740,  402.9367,  402.0460,  406.1897,  402.1482,  403.9361,  402.8392,  403.5257,  401.5930,  402.0800,  402.1712
 2016-01-20 15:33:34,   2016.053683907610,  402.5067,  402.8639,  401.9623,  405.8540,  401.9797,  403.5575,  402.8248,  403.6464,  401.4596,  401.9400,  401.9098